Time,TemperatureF,DewpointF,PressureIn,WindDirection,WindDirectionDegrees,WindSpeedMPH,WindSpeedGustMPH,Humidity,HourlyPrecipIn,Conditions,Clouds,dailyrainin,SoftwareType,DateUTC
2013-01-09 00:02:00,47.7,40.1,31.19,SE,137,1.0,3.0,75,0.00,,,0.01,meteohub,2013-01-09 08:02:00,
2013-01-09 00:07:00,47.5,39.9,31.19,SSE,150,0.0,3.0,75,0.00,,,0.00,meteohub,2013-01-09 08:07:00,
2013-01-09 00:12:00,46.8,39.2,31.18,SSE,150,0.0,3.0,75,0.00,,,0.00,meteohub,2013-01-09 08:12:00,
2013-01-09 00:17:00,45.9,38.1,31.16,SSE,150,0.0,3.0,74,0.00,,,0.00,meteohub,2013-01-09 08:17:00,
2013-01-09 00:22:00,45.3,37.2,31.16,SSE,149,0.0,2.0,73,0.00,,,0.00,meteohub,2013-01-09 08:22:00,
2013-01-09 00:27:00,45.5,37.8,31.15,SSE,150,0.0,2.0,74,0.00,,,0.00,meteohub,2013-01-09 08:27:00,
2013-01-09 00:32:00,45.7,37.6,31.16,South,182,0.0,2.0,73,0.00,,,0.00,meteohub,2013-01-09 08:32:00,
2013-01-09 00:37:00,45.3,37.2,31.15,South,177,0.0,3.0,73,0.00,,,0.00,meteohub,2013-01-09 08:37:00,
2013-01-09 00:42:00,45.1,37.0,31.15,SW,230,2.0,3.0,73,0.00,,,0.00,meteohub,2013-01-09 08:42:00,
2013-01-09 00:47:00,45.7,37.2,31.16,SW,230,1.0,3.0,72,0.00,,,0.00,meteohub,2013-01-09 08:47:00,
2013-01-09 00:52:00,45.7,36.9,31.14,SSW,201,5.0,5.0,71,0.00,,,0.00,meteohub,2013-01-09 08:52:00,
2013-01-09 00:57:00,45.7,37.2,31.15,WSW,240,2.0,7.0,72,0.00,,,0.00,meteohub,2013-01-09 08:57:00,
2013-01-09 01:02:00,45.3,36.1,31.16,SW,219,5.0,7.0,70,0.00,,,0.00,meteohub,2013-01-09 09:02:00,
2013-01-09 01:07:00,45.3,35.8,31.16,SW,216,3.0,7.0,69,0.00,,,0.00,meteohub,2013-01-09 09:07:00,
2013-01-09 01:12:00,45.1,34.9,31.16,SSW,213,0.0,6.0,67,0.00,,,0.00,meteohub,2013-01-09 09:12:00,
2013-01-09 01:17:00,45.1,34.9,31.16,SW,215,0.0,6.0,67,0.00,,,0.00,meteohub,2013-01-09 09:17:00,
2013-01-09 01:22:00,45.0,34.3,31.16,SW,216,0.0,4.0,66,0.00,,,0.00,meteohub,2013-01-09 09:22:00,
2013-01-09 01:27:00,44.4,34.2,31.17,SW,216,2.0,3.0,67,0.00,,,0.00,meteohub,2013-01-09 09:27:00,
2013-01-09 01:32:00,44.1,33.8,31.16,SW,215,0.0,3.0,67,0.00,,,0.00,meteohub,2013-01-09 09:32:00,
2013-01-09 01:37:00,44.1,32.7,31.16,NW,315,3.0,3.0,64,0.00,,,0.00,meteohub,2013-01-09 09:37:00,
2013-01-09 01:42:00,44.4,32.2,31.16,NW,309,5.0,5.0,62,0.00,,,0.00,meteohub,2013-01-09 09:42:00,
2013-01-09 01:47:00,45.0,32.0,31.17,NW,306,2.0,7.0,60,0.00,,,0.00,meteohub,2013-01-09 09:47:00,
2013-01-09 01:52:00,45.1,31.6,31.17,NW,325,5.0,7.0,59,0.00,,,0.00,meteohub,2013-01-09 09:52:00,
2013-01-09 01:57:00,45.3,30.9,31.17,WNW,300,2.0,9.0,57,0.00,,,0.00,meteohub,2013-01-09 09:57:00,
2013-01-09 02:02:00,45.7,30.9,31.17,WNW,296,5.0,11.0,56,0.00,,,0.00,meteohub,2013-01-09 10:02:00,
2013-01-09 02:07:00,45.7,30.4,31.15,NNW,330,5.0,11.0,55,0.00,,,0.00,meteohub,2013-01-09 10:07:00,
2013-01-09 02:12:00,45.7,30.0,31.14,North,0,3.0,11.0,54,0.00,,,0.00,meteohub,2013-01-09 10:12:00,
2013-01-09 02:17:00,45.5,29.3,31.16,WNW,299,3.0,10.0,53,0.00,,,0.00,meteohub,2013-01-09 10:17:00,
2013-01-09 02:22:00,45.3,29.1,31.17,West,274,3.0,6.0,53,0.00,,,0.00,meteohub,2013-01-09 10:22:00,
2013-01-09 02:27:00,45.5,28.9,31.16,NW,326,3.0,6.0,52,0.00,,,0.00,meteohub,2013-01-09 10:27:00,
2013-01-09 02:32:00,45.5,28.9,31.16,NW,310,0.0,6.0,52,0.00,,,0.00,meteohub,2013-01-09 10:32:00,
2013-01-09 02:37:00,45.5,28.4,31.16,WNW,303,0.0,6.0,51,0.00,,,0.00,meteohub,2013-01-09 10:37:00,
2013-01-09 02:42:00,45.3,28.2,31.15,NW,304,0.0,5.0,51,0.00,,,0.00,meteohub,2013-01-09 10:42:00,
2013-01-09 02:47:00,45.3,28.2,31.15,WNW,303,0.0,4.0,51,0.00,,,0.00,meteohub,2013-01-09 10:47:00,
2013-01-09 02:52:00,45.1,27.7,31.14,NW,304,0.0,2.0,50,0.00,,,0.00,meteohub,2013-01-09 10:52:00,
2013-01-09 02:57:00,45.1,27.7,31.15,NW,304,0.0,2.0,50,0.00,,,0.00,meteohub,2013-01-09 10:57:00,
2013-01-09 03:02:00,45.1,27.7,31.15,NW,304,1.0,2.0,50,0.00,,,0.00,meteohub,2013-01-09 11:02:00,
2013-01-09 03:07:00,45.1,27.7,31.14,West,261,2.0,3.0,50,0.00,,,0.00,meteohub,2013-01-09 11:07:00,
2013-01-09 03:12:00,45.3,27.3,31.13,West,261,0.0,4.0,49,0.00,,,0.00,meteohub,2013-01-09 11:12:00,
2013-01-09 03:17:00,45.3,27.3,31.14,West,261,0.0,4.0,49,0.00,,,0.00,meteohub,2013-01-09 11:17:00,
2013-01-09 03:22:00,45.3,26.8,31.13,WSW,248,0.0,4.0,48,0.00,,,0.00,meteohub,2013-01-09 11:22:00,
2013-01-09 03:27:00,45.3,26.8,31.13,SSE,168,0.0,4.0,48,0.00,,,0.00,meteohub,2013-01-09 11:27:00,
2013-01-09 03:32:00,45.3,26.8,31.13,South,169,0.0,4.0,48,0.00,,,0.00,meteohub,2013-01-09 11:32:00,
2013-01-09 03:37:00,45.1,26.6,31.13,South,169,0.0,4.0,48,0.00,,,0.00,meteohub,2013-01-09 11:37:00,
2013-01-09 03:42:00,45.1,26.6,31.14,South,180,3.0,3.0,48,0.00,,,0.00,meteohub,2013-01-09 11:42:00,
2013-01-09 03:47:00,45.1,26.6,31.13,SW,218,11.0,11.0,48,0.00,,,0.00,meteohub,2013-01-09 11:47:00,
2013-01-09 03:52:00,45.1,26.6,31.12,SE,144,1.0,11.0,48,0.00,,,0.00,meteohub,2013-01-09 11:52:00,
2013-01-09 03:57:00,45.1,26.6,31.12,SSE,162,0.0,11.0,48,0.00,,,0.00,meteohub,2013-01-09 11:57:00,
2013-01-09 04:02:00,45.0,26.4,31.12,SSE,159,0.0,11.0,48,0.00,,,0.00,meteohub,2013-01-09 12:02:00,
2013-01-09 04:07:00,45.0,26.4,31.12,SSE,164,3.0,3.0,48,0.00,,,0.00,meteohub,2013-01-09 12:07:00,
2013-01-09 04:12:00,45.0,26.4,31.12,SSE,157,2.0,9.0,48,0.00,,,0.00,meteohub,2013-01-09 12:12:00,
2013-01-09 04:17:00,45.0,26.4,31.12,SSE,157,0.0,9.0,48,0.00,,,0.00,meteohub,2013-01-09 12:17:00,
2013-01-09 04:22:00,45.0,26.4,31.12,South,171,2.0,5.0,48,0.00,,,0.00,meteohub,2013-01-09 12:22:00,
2013-01-09 04:27:00,44.8,26.2,31.12,SSE,155,0.0,4.0,48,0.00,,,0.00,meteohub,2013-01-09 12:27:00,
2013-01-09 04:32:00,45.0,26.4,31.12,SSE,155,1.0,4.0,48,0.00,,,0.00,meteohub,2013-01-09 12:32:00,
2013-01-09 04:37:00,45.0,26.4,31.12,SSW,195,0.0,5.0,48,0.00,,,0.00,meteohub,2013-01-09 12:37:00,
2013-01-09 04:42:00,45.0,27.0,31.12,SSW,195,0.0,5.0,49,0.00,,,0.00,meteohub,2013-01-09 12:42:00,
2013-01-09 04:47:00,44.8,26.8,31.12,SSW,195,1.0,5.0,49,0.00,,,0.00,meteohub,2013-01-09 12:47:00,
2013-01-09 04:52:00,44.4,26.4,31.12,SSW,195,1.0,3.0,49,0.00,,,0.00,meteohub,2013-01-09 12:52:00,
2013-01-09 04:57:00,44.2,26.2,31.12,SSW,195,0.0,3.0,49,0.00,,,0.00,meteohub,2013-01-09 12:57:00,
2013-01-09 05:02:00,44.1,26.1,31.12,SSW,195,0.0,3.0,49,0.00,,,0.00,meteohub,2013-01-09 13:02:00,
2013-01-09 05:07:00,44.1,26.1,31.12,SSW,195,1.0,3.0,49,0.00,,,0.00,meteohub,2013-01-09 13:07:00,
2013-01-09 05:12:00,43.9,25.9,31.12,SSW,195,0.0,3.0,49,0.00,,,0.00,meteohub,2013-01-09 13:12:00,
2013-01-09 05:17:00,43.7,25.7,31.12,SSW,195,0.0,2.0,49,0.00,,,0.00,meteohub,2013-01-09 13:17:00,
2013-01-09 05:22:00,43.0,25.7,31.12,South,186,0.0,2.0,50,0.00,,,0.00,meteohub,2013-01-09 13:22:00,
2013-01-09 05:27:00,43.2,25.3,31.12,South,173,1.0,2.0,49,0.00,,,0.00,meteohub,2013-01-09 13:27:00,
2013-01-09 05:32:00,43.5,25.2,31.12,SSW,211,0.0,6.0,48,0.00,,,0.00,meteohub,2013-01-09 13:32:00,
2013-01-09 05:37:00,44.1,25.7,31.12,SSW,192,0.0,6.0,48,0.00,,,0.00,meteohub,2013-01-09 13:37:00,
2013-01-09 05:42:00,44.2,25.7,31.12,South,171,0.0,6.0,48,0.00,,,0.00,meteohub,2013-01-09 13:42:00,
2013-01-09 05:47:00,44.2,25.7,31.12,SSE,150,3.0,6.0,48,0.00,,,0.00,meteohub,2013-01-09 13:47:00,
2013-01-09 05:52:00,44.6,26.6,31.12,SSE,167,2.0,5.0,49,0.00,,,0.00,meteohub,2013-01-09 13:52:00,
2013-01-09 05:57:00,45.0,27.5,31.12,SSE,153,1.0,9.0,50,0.00,,,0.00,meteohub,2013-01-09 13:57:00,
2013-01-09 06:02:00,45.0,28.4,31.12,SSE,160,0.0,9.0,52,0.00,,,0.00,meteohub,2013-01-09 14:02:00,
2013-01-09 06:07:00,45.1,29.5,31.12,SSW,192,7.0,7.0,54,0.00,,,0.00,meteohub,2013-01-09 14:07:00,
2013-01-09 06:12:00,45.3,31.5,31.12,SSE,157,6.0,10.0,58,0.00,,,0.00,meteohub,2013-01-09 14:12:00,
2013-01-09 06:17:00,45.7,33.1,31.12,SSE,160,3.0,10.0,61,0.00,,,0.00,meteohub,2013-01-09 14:17:00,
2013-01-09 06:22:00,46.4,36.0,31.12,SSE,166,3.0,11.0,67,0.00,,,0.00,meteohub,2013-01-09 14:22:00,
2013-01-09 06:27:00,47.5,38.8,31.12,SSE,148,9.0,22.0,72,0.00,,,0.00,meteohub,2013-01-09 14:27:00,
2013-01-09 06:32:00,48.4,40.5,31.12,SSE,152,8.0,22.0,74,0.00,,,0.00,meteohub,2013-01-09 14:32:00,
2013-01-09 06:37:00,48.7,40.8,31.12,South,187,22.0,29.0,74,0.00,,,0.00,meteohub,2013-01-09 14:37:00,
2013-01-09 06:42:00,48.7,40.5,31.12,SE,140,7.0,29.0,73,0.00,,,0.00,meteohub,2013-01-09 14:42:00,
2013-01-09 06:47:00,48.7,40.5,31.12,SSE,164,6.0,29.0,73,0.00,,,0.00,meteohub,2013-01-09 14:47:00,
2013-01-09 06:52:00,48.7,40.5,31.12,South,188,17.0,26.0,73,0.00,,,0.00,meteohub,2013-01-09 14:52:00,
2013-01-09 06:57:00,48.6,40.6,31.12,South,171,13.0,31.0,74,0.00,,,0.00,meteohub,2013-01-09 14:57:00,
2013-01-09 07:02:00,48.2,40.3,31.12,South,171,11.0,31.0,74,0.00,,,0.00,meteohub,2013-01-09 15:02:00,
2013-01-09 07:07:00,48.2,40.3,31.12,SSW,192,12.0,27.0,74,0.00,,,0.00,meteohub,2013-01-09 15:07:00,
2013-01-09 07:12:00,48.0,40.1,31.12,SSW,198,14.0,27.0,74,0.00,,,0.00,meteohub,2013-01-09 15:12:00,
2013-01-09 07:17:00,47.7,39.4,31.12,SW,221,11.0,27.0,73,0.00,,,0.00,meteohub,2013-01-09 15:17:00,
2013-01-09 07:22:00,46.2,37.8,31.12,SW,225,13.0,27.0,72,0.00,,,0.00,meteohub,2013-01-09 15:22:00,
2013-01-09 07:27:00,44.6,35.4,31.12,WNW,295,6.0,26.0,70,0.03,,,0.03,meteohub,2013-01-09 15:27:00,
2013-01-09 07:32:00,43.5,33.6,31.12,SW,217,6.0,22.0,68,0.04,,,0.04,meteohub,2013-01-09 15:32:00,
2013-01-09 07:37:00,42.8,31.8,31.12,West,265,9.0,22.0,65,0.05,,,0.05,meteohub,2013-01-09 15:37:00,
2013-01-09 07:42:00,42.3,30.9,31.12,SW,215,10.0,22.0,64,0.06,,,0.06,meteohub,2013-01-09 15:42:00,
2013-01-09 07:47:00,41.9,29.8,31.12,WSW,240,10.0,16.0,62,0.06,,,0.06,meteohub,2013-01-09 15:47:00,
2013-01-09 07:52:00,41.5,28.8,31.12,SSW,198,0.0,19.0,60,0.07,,,0.07,meteohub,2013-01-09 15:52:00,
2013-01-09 07:57:00,41.4,28.0,31.12,South,190,2.0,19.0,59,0.08,,,0.08,meteohub,2013-01-09 15:57:00,
2013-01-09 08:02:00,41.4,27.3,31.12,South,182,11.0,18.0,57,0.08,,,0.08,meteohub,2013-01-09 16:02:00,
2013-01-09 08:07:00,41.2,26.2,31.12,South,183,6.0,13.0,55,0.09,,,0.09,meteohub,2013-01-09 16:07:00,
2013-01-09 08:12:00,41.2,25.9,31.12,South,180,4.0,14.0,54,0.09,,,0.09,meteohub,2013-01-09 16:12:00,
2013-01-09 08:17:00,41.2,25.3,31.12,SE,138,1.0,14.0,53,0.09,,,0.09,meteohub,2013-01-09 16:17:00,
2013-01-09 08:22:00,41.0,24.8,31.12,SSE,156,2.0,14.0,52,0.08,,,0.09,meteohub,2013-01-09 16:22:00,
2013-01-09 08:27:00,41.0,24.3,31.12,South,183,4.0,10.0,51,0.07,,,0.10,meteohub,2013-01-09 16:27:00,
2013-01-09 08:32:00,41.0,24.3,31.12,South,187,4.0,11.0,51,0.06,,,0.10,meteohub,2013-01-09 16:32:00,
2013-01-09 08:37:00,41.0,23.7,31.12,South,180,7.0,11.0,50,0.05,,,0.10,meteohub,2013-01-09 16:37:00,
2013-01-09 08:42:00,41.2,23.9,31.12,South,191,5.0,11.0,50,0.04,,,0.10,meteohub,2013-01-09 16:42:00,
2013-01-09 08:47:00,41.2,23.5,31.12,South,179,0.0,9.0,49,0.03,,,0.10,meteohub,2013-01-09 16:47:00,
2013-01-09 08:52:00,41.2,23.0,31.11,South,184,8.0,9.0,48,0.02,,,0.10,meteohub,2013-01-09 16:52:00,
2013-01-09 08:57:00,41.2,23.0,31.12,South,183,7.0,9.0,48,0.02,,,0.10,meteohub,2013-01-09 16:57:00,
2013-01-09 09:02:00,41.4,23.2,31.12,SSW,195,3.0,10.0,48,0.01,,,0.10,meteohub,2013-01-09 17:02:00,
2013-01-09 09:07:00,41.4,22.6,31.12,South,182,12.0,13.0,47,0.01,,,0.10,meteohub,2013-01-09 17:07:00,
2013-01-09 09:12:00,41.4,22.6,31.12,SE,143,3.0,14.0,47,0.01,,,0.10,meteohub,2013-01-09 17:12:00,
2013-01-09 09:17:00,41.4,22.6,31.12,SSW,192,8.0,14.0,47,0.01,,,0.10,meteohub,2013-01-09 17:17:00,
2013-01-09 09:22:00,41.4,22.6,31.12,SSE,157,1.0,14.0,47,0.01,,,0.10,meteohub,2013-01-09 17:22:00,
2013-01-09 09:27:00,41.4,22.6,31.12,South,174,3.0,13.0,47,0.01,,,0.11,meteohub,2013-01-09 17:27:00,
2013-01-09 09:32:00,41.4,22.6,31.12,South,186,9.0,13.0,47,0.01,,,0.11,meteohub,2013-01-09 17:32:00,
2013-01-09 09:37:00,41.4,22.1,31.12,SSW,206,5.0,13.0,46,0.01,,,0.11,meteohub,2013-01-09 17:37:00,
2013-01-09 09:42:00,41.4,22.1,31.13,South,178,1.0,12.0,46,0.01,,,0.11,meteohub,2013-01-09 17:42:00,
2013-01-09 09:47:00,41.4,22.1,31.13,South,186,5.0,12.0,46,0.01,,,0.11,meteohub,2013-01-09 17:47:00,
2013-01-09 09:52:00,41.4,22.1,31.13,SSW,209,0.0,11.0,46,0.01,,,0.11,meteohub,2013-01-09 17:52:00,
2013-01-09 09:57:00,41.4,22.1,31.13,South,188,4.0,11.0,46,0.01,,,0.11,meteohub,2013-01-09 17:57:00,
2013-01-09 10:02:00,41.4,22.1,31.13,South,188,4.0,10.0,46,0.01,,,0.11,meteohub,2013-01-09 18:02:00,
2013-01-09 10:07:00,41.4,22.1,31.13,South,187,9.0,11.0,46,0.01,,,0.11,meteohub,2013-01-09 18:07:00,
2013-01-09 10:12:00,41.4,22.1,31.13,SSW,192,9.0,11.0,46,0.01,,,0.11,meteohub,2013-01-09 18:12:00,
2013-01-09 10:17:00,41.2,21.9,31.13,South,171,5.0,11.0,46,0.02,,,0.12,meteohub,2013-01-09 18:17:00,
2013-01-09 10:22:00,41.4,22.1,31.14,SSW,192,5.0,12.0,46,0.02,,,0.12,meteohub,2013-01-09 18:22:00,
2013-01-09 10:27:00,41.4,22.1,31.13,SSE,159,2.0,13.0,46,0.01,,,0.12,meteohub,2013-01-09 18:27:00,
2013-01-09 10:32:00,41.2,21.9,31.14,South,181,2.0,13.0,46,0.01,,,0.12,meteohub,2013-01-09 18:32:00,
2013-01-09 10:37:00,41.4,22.1,31.14,South,182,2.0,13.0,46,0.01,,,0.12,meteohub,2013-01-09 18:37:00,
2013-01-09 10:41:00,41.4,21.6,31.14,SSW,202,5.0,9.0,45,0.01,,,0.12,meteohub,2013-01-09 18:41:00,
2013-01-09 10:42:00,41.4,21.6,31.14,South,184,2.0,9.0,45,0.01,,,0.12,meteohub,2013-01-09 18:42:00,
2013-01-09 10:43:00,41.4,21.6,31.14,South,191,12.0,12.0,45,0.01,,,0.12,meteohub,2013-01-09 18:43:00,
2013-01-09 10:44:00,41.4,21.6,31.14,SSW,213,5.0,9.0,45,0.01,,,0.12,meteohub,2013-01-09 18:44:00,
2013-01-09 10:45:00,41.4,21.6,31.14,South,186,5.0,9.0,45,0.01,,,0.12,meteohub,2013-01-09 18:45:00,
2013-01-09 10:47:00,41.4,21.6,31.14,South,180,1.0,12.0,45,0.01,,,0.12,meteohub,2013-01-09 18:47:00,
2013-01-09 10:48:00,41.4,21.6,31.14,South,180,1.0,12.0,45,0.01,,,0.12,meteohub,2013-01-09 18:48:00,
2013-01-09 10:49:00,41.4,21.6,31.14,SSW,211,2.0,12.0,45,0.01,,,0.12,meteohub,2013-01-09 18:49:00,
2013-01-09 10:51:00,41.4,21.6,31.14,South,172,4.0,12.0,45,0.01,,,0.12,meteohub,2013-01-09 18:51:00,
2013-01-09 10:56:00,41.4,21.6,31.14,SSW,207,0.0,12.0,45,0.01,,,0.12,meteohub,2013-01-09 18:56:00,
2013-01-09 11:01:00,41.2,21.4,31.14,SSW,212,6.0,9.0,45,0.01,,,0.12,meteohub,2013-01-09 19:01:00,
2013-01-09 11:06:00,41.2,21.9,31.14,SW,221,6.0,12.0,46,0.01,,,0.12,meteohub,2013-01-09 19:06:00,
2013-01-09 11:11:00,41.0,21.7,31.14,SSW,207,9.0,12.0,46,0.02,,,0.13,meteohub,2013-01-09 19:11:00,
2013-01-09 11:16:00,41.0,21.7,31.14,WSW,253,4.0,14.0,46,0.01,,,0.13,meteohub,2013-01-09 19:16:00,
2013-01-09 11:22:00,40.8,21.6,31.14,West,276,4.0,14.0,46,0.01,,,0.13,meteohub,2013-01-09 19:22:00,
2013-01-09 11:27:00,40.8,21.6,31.15,SSW,197,5.0,14.0,46,0.02,,,0.14,meteohub,2013-01-09 19:27:00,
2013-01-09 11:32:00,40.8,21.6,31.14,SSW,206,5.0,11.0,46,0.02,,,0.14,meteohub,2013-01-09 19:32:00,
2013-01-09 11:37:00,40.6,21.6,31.14,SW,223,10.0,10.0,46,0.02,,,0.14,meteohub,2013-01-09 19:37:00,
2013-01-09 11:42:00,40.5,21.4,31.14,SSW,195,10.0,10.0,46,0.02,,,0.14,meteohub,2013-01-09 19:42:00,
2013-01-09 11:47:00,40.3,21.2,31.14,WSW,238,2.0,13.0,46,0.02,,,0.14,meteohub,2013-01-09 19:47:00,
2013-01-09 11:52:00,40.1,21.0,31.14,WSW,248,0.0,13.0,46,0.02,,,0.14,meteohub,2013-01-09 19:52:00,
2013-01-09 11:57:00,39.9,20.8,31.14,West,281,1.0,13.0,46,0.02,,,0.14,meteohub,2013-01-09 19:57:00,
2013-01-09 12:02:00,39.9,20.8,31.14,WSW,245,5.0,10.0,46,0.02,,,0.14,meteohub,2013-01-09 20:02:00,
2013-01-09 12:07:00,39.9,20.8,31.14,West,277,0.0,11.0,46,0.01,,,0.14,meteohub,2013-01-09 20:07:00,
2013-01-09 12:12:00,39.9,20.8,31.14,WNW,285,3.0,11.0,46,0.01,,,0.14,meteohub,2013-01-09 20:12:00,
2013-01-09 12:18:00,39.7,20.7,31.14,West,259,0.0,11.0,46,0.01,,,0.14,meteohub,2013-01-09 20:18:00,
2013-01-09 12:23:00,39.6,20.5,31.14,WSW,255,0.0,9.0,46,0.01,,,0.14,meteohub,2013-01-09 20:23:00,
2013-01-09 12:28:00,39.6,20.5,31.14,NW,312,4.0,11.0,46,0.00,,,0.14,meteohub,2013-01-09 20:28:00,
2013-01-09 12:33:00,39.6,20.5,31.14,WSW,257,0.0,11.0,46,0.00,,,0.14,meteohub,2013-01-09 20:33:00,
2013-01-09 12:38:00,39.6,20.5,31.14,WNW,290,0.0,11.0,46,0.00,,,0.14,meteohub,2013-01-09 20:38:00,
2013-01-09 12:43:00,39.6,20.5,31.15,West,275,2.0,7.0,46,0.00,,,0.14,meteohub,2013-01-09 20:43:00,
2013-01-09 12:48:00,39.4,20.3,31.14,West,275,5.0,9.0,46,0.00,,,0.14,meteohub,2013-01-09 20:48:00,
2013-01-09 12:53:00,39.0,20.5,31.14,WSW,257,6.0,9.0,47,0.00,,,0.14,meteohub,2013-01-09 20:53:00,
2013-01-09 12:59:00,39.2,20.1,31.14,WNW,289,1.0,9.0,46,0.00,,,0.14,meteohub,2013-01-09 20:59:00,
2013-01-09 13:04:00,39.4,20.3,31.13,SW,222,0.0,7.0,46,0.00,,,0.14,meteohub,2013-01-09 21:04:00,
2013-01-09 13:09:00,39.4,20.3,31.14,WSW,237,3.0,7.0,46,0.00,,,0.14,meteohub,2013-01-09 21:09:00,
2013-01-09 13:14:00,39.4,20.8,31.14,SW,224,0.0,7.0,47,0.00,,,0.14,meteohub,2013-01-09 21:14:00,
2013-01-09 13:19:00,39.6,21.0,31.14,SW,224,1.0,7.0,47,0.00,,,0.14,meteohub,2013-01-09 21:19:00,
2013-01-09 13:24:00,39.6,21.0,31.14,SW,224,0.0,7.0,47,0.00,,,0.14,meteohub,2013-01-09 21:24:00,
2013-01-09 13:29:00,39.9,21.4,31.15,WSW,251,0.0,4.0,47,0.00,,,0.14,meteohub,2013-01-09 21:29:00,
2013-01-09 13:34:00,39.9,21.4,31.15,SW,233,0.0,5.0,47,0.00,,,0.14,meteohub,2013-01-09 21:34:00,
2013-01-09 13:39:00,39.9,21.4,31.15,SSW,199,1.0,7.0,47,0.00,,,0.14,meteohub,2013-01-09 21:39:00,
2013-01-09 13:44:00,39.9,21.7,31.16,SSW,198,5.0,7.0,48,0.00,,,0.14,meteohub,2013-01-09 21:44:00,
2013-01-09 13:50:00,39.6,21.6,31.16,SSW,195,6.0,9.0,48,0.00,,,0.14,meteohub,2013-01-09 21:50:00,
2013-01-09 13:55:00,39.6,21.9,31.15,South,190,1.0,9.0,49,0.00,,,0.14,meteohub,2013-01-09 21:55:00,
2013-01-09 14:00:00,39.7,22.1,31.15,South,190,3.0,9.0,49,0.00,,,0.14,meteohub,2013-01-09 22:00:00,
2013-01-09 14:05:00,39.7,22.1,31.15,SW,222,0.0,9.0,49,0.00,,,0.14,meteohub,2013-01-09 22:05:00,
2013-01-09 14:10:00,39.9,22.3,31.15,South,184,5.0,8.0,49,0.00,,,0.14,meteohub,2013-01-09 22:10:00,
2013-01-09 14:15:00,40.1,21.9,31.15,South,188,1.0,9.0,48,0.00,,,0.14,meteohub,2013-01-09 22:15:00,
2013-01-09 14:20:00,40.1,22.5,31.15,South,185,0.0,9.0,49,0.00,,,0.14,meteohub,2013-01-09 22:20:00,
2013-01-09 14:25:00,39.9,22.3,31.16,WSW,250,5.0,9.0,49,0.01,,,0.14,meteohub,2013-01-09 22:25:00,
2013-01-09 14:30:00,37.9,23.2,31.17,West,271,3.0,19.0,55,0.01,,,0.15,meteohub,2013-01-09 22:30:00,
2013-01-09 14:35:00,35.8,22.1,31.16,WNW,295,6.0,19.0,57,0.01,,,0.15,meteohub,2013-01-09 22:35:00,
2013-01-09 14:41:00,34.9,20.8,31.16,NW,315,4.0,19.0,56,0.01,,,0.15,meteohub,2013-01-09 22:41:00,
2013-01-09 14:46:00,34.5,19.9,31.16,NNW,344,3.0,19.0,55,0.01,,,0.15,meteohub,2013-01-09 22:46:00,
2013-01-09 14:51:00,34.5,19.6,31.15,North,0,0.0,11.0,54,0.01,,,0.15,meteohub,2013-01-09 22:51:00,
2013-01-09 14:56:00,34.7,19.4,31.16,NW,321,0.0,11.0,53,0.01,,,0.15,meteohub,2013-01-09 22:56:00,
2013-01-09 15:01:00,34.9,19.4,31.16,NW,318,0.0,9.0,53,0.01,,,0.15,meteohub,2013-01-09 23:01:00,
2013-01-09 15:06:00,35.2,19.4,31.16,NW,318,0.0,4.0,52,0.01,,,0.15,meteohub,2013-01-09 23:06:00,
2013-01-09 15:11:00,35.8,19.4,31.16,NW,318,0.0,2.0,51,0.01,,,0.15,meteohub,2013-01-09 23:11:00,
2013-01-09 15:16:00,35.8,19.4,31.16,NW,318,0.0,0.0,51,0.02,,,0.16,meteohub,2013-01-09 23:16:00,
2013-01-09 15:21:00,35.8,19.4,31.16,NW,318,0.0,0.0,51,0.02,,,0.16,meteohub,2013-01-09 23:21:00,
2013-01-09 15:26:00,35.8,19.4,31.16,NW,318,0.0,0.0,51,0.01,,,0.16,meteohub,2013-01-09 23:26:00,
2013-01-09 15:32:00,35.8,19.4,31.16,NW,318,0.0,0.0,51,0.01,,,0.16,meteohub,2013-01-09 23:32:00,
2013-01-09 15:37:00,35.8,19.4,31.16,NW,318,0.0,0.0,51,0.01,,,0.16,meteohub,2013-01-09 23:37:00,
2013-01-09 15:42:00,35.8,19.4,31.16,NW,318,0.0,2.0,51,0.01,,,0.16,meteohub,2013-01-09 23:42:00,
2013-01-09 15:47:00,35.8,19.4,31.16,NW,318,0.0,2.0,51,0.02,,,0.17,meteohub,2013-01-09 23:47:00,
2013-01-09 15:52:00,35.6,19.2,31.16,NW,318,0.0,1.0,51,0.02,,,0.17,meteohub,2013-01-09 23:52:00,
2013-01-09 15:57:00,35.4,18.7,31.16,NW,318,0.0,1.0,50,0.02,,,0.17,meteohub,2013-01-09 23:57:00,
2013-01-09 16:02:00,35.4,18.7,31.16,NW,318,0.0,0.0,50,0.02,,,0.17,meteohub,2013-01-10 00:02:00,
2013-01-09 16:07:00,35.6,18.9,31.16,NW,318,0.0,0.0,50,0.02,,,0.17,meteohub,2013-01-10 00:07:00,
2013-01-09 16:12:00,35.6,18.9,31.16,NW,318,0.0,0.0,50,0.02,,,0.17,meteohub,2013-01-10 00:12:00,
2013-01-09 16:17:00,35.4,18.7,31.16,NW,318,0.0,0.0,50,0.01,,,0.17,meteohub,2013-01-10 00:17:00,
2013-01-09 16:22:00,35.4,18.7,31.16,NW,318,0.0,0.0,50,0.01,,,0.17,meteohub,2013-01-10 00:22:00,
2013-01-09 16:27:00,35.2,18.5,31.16,NW,318,0.0,1.0,50,0.02,,,0.18,meteohub,2013-01-10 00:27:00,
2013-01-09 16:32:00,35.4,18.7,31.16,NW,318,0.0,1.0,50,0.02,,,0.18,meteohub,2013-01-10 00:32:00,
2013-01-09 16:37:00,35.4,18.1,31.16,NW,318,0.0,0.0,49,0.02,,,0.18,meteohub,2013-01-10 00:37:00,
2013-01-09 16:42:00,35.6,18.3,31.16,NW,318,0.0,0.0,49,0.01,,,0.18,meteohub,2013-01-10 00:42:00,
2013-01-09 16:47:00,35.6,18.3,31.15,NW,318,0.0,0.0,49,0.01,,,0.18,meteohub,2013-01-10 00:47:00,
2013-01-09 16:52:00,35.8,18.5,31.15,NW,318,0.0,0.0,49,0.01,,,0.18,meteohub,2013-01-10 00:52:00,
2013-01-09 16:57:00,35.8,18.5,31.15,NW,318,0.0,0.0,49,0.01,,,0.18,meteohub,2013-01-10 00:57:00,
2013-01-09 17:02:00,35.8,18.5,31.15,NW,318,0.0,0.0,49,0.01,,,0.18,meteohub,2013-01-10 01:02:00,
2013-01-09 17:07:00,35.8,18.5,31.15,NW,318,0.0,0.0,49,0.01,,,0.18,meteohub,2013-01-10 01:07:00,
2013-01-09 17:12:00,35.8,18.5,31.15,NW,318,0.0,0.0,49,0.01,,,0.18,meteohub,2013-01-10 01:12:00,
2013-01-09 17:17:00,35.8,18.5,31.15,NW,318,0.0,0.0,49,0.01,,,0.18,meteohub,2013-01-10 01:17:00,
2013-01-09 17:22:00,35.8,18.5,31.15,NW,318,0.0,0.0,49,0.00,,,0.18,meteohub,2013-01-10 01:22:00,
2013-01-09 17:27:00,35.8,18.0,31.15,SSE,165,1.0,2.0,48,0.00,,,0.18,meteohub,2013-01-10 01:27:00,
2013-01-09 17:32:00,36.0,18.1,31.15,SSE,166,0.0,3.0,48,0.00,,,0.18,meteohub,2013-01-10 01:32:00,
2013-01-09 17:37:00,35.8,18.0,31.15,NNW,341,6.0,6.0,48,0.00,,,0.18,meteohub,2013-01-10 01:37:00,
2013-01-09 17:42:00,35.4,18.1,31.16,North,349,0.0,12.0,49,0.00,,,0.18,meteohub,2013-01-10 01:42:00,
2013-01-09 17:47:00,35.1,17.8,31.16,ENE,78,0.0,12.0,49,0.00,,,0.18,meteohub,2013-01-10 01:47:00,
2013-01-09 17:52:00,34.9,17.6,31.16,ENE,78,0.0,7.0,49,0.00,,,0.18,meteohub,2013-01-10 01:52:00,
2013-01-09 17:57:00,34.7,17.4,31.16,ENE,78,0.0,3.0,49,0.00,,,0.18,meteohub,2013-01-10 01:57:00,
2013-01-09 18:02:00,34.5,17.2,31.16,ENE,78,0.0,3.0,49,0.00,,,0.18,meteohub,2013-01-10 02:02:00,
2013-01-09 18:07:00,34.5,17.2,31.16,ENE,78,0.0,2.0,49,0.01,,,0.19,meteohub,2013-01-10 02:07:00,
2013-01-09 18:13:00,34.5,17.2,31.16,ENE,78,0.0,1.0,49,0.01,,,0.19,meteohub,2013-01-10 02:13:00,
2013-01-09 18:18:00,34.7,17.4,31.16,South,191,1.0,0.0,49,0.01,,,0.19,meteohub,2013-01-10 02:18:00,
2013-01-09 18:23:00,35.2,17.6,31.16,SSW,202,0.0,5.0,48,0.02,,,0.20,meteohub,2013-01-10 02:23:00,
2013-01-09 18:28:00,35.4,17.6,31.16,SSW,202,1.0,7.0,48,0.02,,,0.20,meteohub,2013-01-10 02:28:00,
2013-01-09 18:33:00,35.4,17.6,31.16,SSW,203,2.0,7.0,48,0.02,,,0.20,meteohub,2013-01-10 02:33:00,
2013-01-09 18:38:00,35.4,17.6,31.16,SSW,205,0.0,5.0,48,0.03,,,0.21,meteohub,2013-01-10 02:38:00,
2013-01-09 18:43:00,35.2,17.6,31.16,WNW,295,0.0,4.0,48,0.03,,,0.21,meteohub,2013-01-10 02:43:00,
2013-01-09 18:48:00,35.2,17.6,31.16,WNW,296,0.0,6.0,48,0.03,,,0.21,meteohub,2013-01-10 02:48:00,
2013-01-09 18:54:00,35.1,17.4,31.16,WNW,296,0.0,6.0,48,0.03,,,0.21,meteohub,2013-01-10 02:54:00,
2013-01-09 18:59:00,34.9,17.6,31.16,WNW,296,0.0,3.0,49,0.03,,,0.21,meteohub,2013-01-10 02:59:00,
2013-01-09 19:04:00,34.9,17.6,31.16,WNW,296,0.0,2.0,49,0.03,,,0.21,meteohub,2013-01-10 03:04:00,
2013-01-09 19:09:00,35.1,17.4,31.15,SW,230,0.0,1.0,48,0.02,,,0.21,meteohub,2013-01-10 03:09:00,
2013-01-09 19:14:00,35.1,17.4,31.15,SW,230,0.0,2.0,48,0.02,,,0.21,meteohub,2013-01-10 03:14:00,
2013-01-09 19:19:00,35.1,17.4,31.16,SW,230,0.0,2.0,48,0.02,,,0.21,meteohub,2013-01-10 03:19:00,
2013-01-09 19:24:00,34.9,17.2,31.15,SW,230,0.0,2.0,48,0.01,,,0.21,meteohub,2013-01-10 03:24:00,
2013-01-09 19:29:00,34.9,17.6,31.16,SW,230,0.0,0.0,49,0.01,,,0.21,meteohub,2013-01-10 03:29:00,
2013-01-09 19:34:00,34.7,17.1,31.16,SW,230,0.0,0.0,48,0.01,,,0.21,meteohub,2013-01-10 03:34:00,
2013-01-09 19:40:00,34.7,17.1,31.15,SW,230,1.0,0.0,48,0.00,,,0.21,meteohub,2013-01-10 03:40:00,
2013-01-09 19:45:00,34.7,17.1,31.15,SW,230,0.0,1.0,48,0.00,,,0.21,meteohub,2013-01-10 03:45:00,
2013-01-09 19:50:00,34.7,17.1,31.16,SW,230,0.0,2.0,48,0.00,,,0.21,meteohub,2013-01-10 03:50:00,
2013-01-09 19:55:00,34.7,17.1,31.16,SW,230,0.0,2.0,48,0.00,,,0.21,meteohub,2013-01-10 03:55:00,
2013-01-09 20:00:00,34.7,17.1,31.16,SSE,168,0.0,0.0,48,0.00,,,0.21,meteohub,2013-01-10 04:00:00,
2013-01-09 20:05:00,35.1,17.4,31.16,SSW,211,3.0,4.0,48,0.00,,,0.21,meteohub,2013-01-10 04:05:00,
2013-01-09 20:10:00,35.2,17.6,31.16,SSW,192,7.0,7.0,48,0.01,,,0.22,meteohub,2013-01-10 04:10:00,
2013-01-09 20:15:00,35.1,17.4,31.16,SSW,205,3.0,7.0,48,0.01,,,0.22,meteohub,2013-01-10 04:15:00,
2013-01-09 20:20:00,34.7,17.1,31.16,SSW,209,4.0,10.0,48,0.01,,,0.22,meteohub,2013-01-10 04:20:00,
2013-01-09 20:25:00,34.5,17.2,31.16,SSW,211,0.0,10.0,49,0.01,,,0.22,meteohub,2013-01-10 04:25:00,
2013-01-09 20:31:00,34.3,17.2,31.16,SSW,211,1.0,9.0,49,0.01,,,0.22,meteohub,2013-01-10 04:31:00,
2013-01-09 20:36:00,34.3,17.2,31.16,SSW,211,0.0,8.0,49,0.01,,,0.22,meteohub,2013-01-10 04:36:00,
2013-01-09 20:41:00,34.3,17.2,31.16,SSW,211,0.0,4.0,49,0.01,,,0.22,meteohub,2013-01-10 04:41:00,
2013-01-09 20:46:00,34.3,17.2,31.16,SSW,211,0.0,3.0,49,0.01,,,0.22,meteohub,2013-01-10 04:46:00,
2013-01-09 20:51:00,34.5,16.9,31.16,SSW,211,0.0,3.0,48,0.01,,,0.22,meteohub,2013-01-10 04:51:00,
2013-01-09 20:56:00,34.5,16.9,31.16,SSW,211,0.0,3.0,48,0.01,,,0.22,meteohub,2013-01-10 04:56:00,
2013-01-09 21:00:00,34.5,16.9,31.16,SSW,211,0.0,3.0,48,0.01,,,0.23,meteohub,2013-01-10 05:00:00,
2013-01-09 21:01:00,34.5,16.9,31.16,SSW,211,0.0,2.0,48,0.02,,,0.23,meteohub,2013-01-10 05:01:00,
2013-01-09 21:02:00,34.5,16.9,31.16,SSW,211,0.0,2.0,48,0.02,,,0.23,meteohub,2013-01-10 05:02:00,
2013-01-09 21:03:00,34.5,16.9,31.16,SSW,211,0.0,2.0,48,0.02,,,0.23,meteohub,2013-01-10 05:03:00,
2013-01-09 21:08:00,34.5,16.9,31.16,SSW,211,0.0,2.0,48,0.01,,,0.23,meteohub,2013-01-10 05:08:00,
2013-01-09 21:14:00,34.5,16.9,31.16,SSW,211,0.0,2.0,48,0.01,,,0.23,meteohub,2013-01-10 05:14:00,
2013-01-09 21:19:00,34.5,16.9,31.16,SSW,211,0.0,2.0,48,0.01,,,0.23,meteohub,2013-01-10 05:19:00,
2013-01-09 21:24:00,34.5,16.9,31.16,SSW,211,0.0,2.0,48,0.01,,,0.23,meteohub,2013-01-10 05:24:00,
2013-01-09 21:29:00,34.5,16.9,31.16,SSW,211,0.0,2.0,48,0.01,,,0.23,meteohub,2013-01-10 05:29:00,
2013-01-09 21:34:00,34.5,17.2,31.16,SSW,211,0.0,2.0,49,0.01,,,0.23,meteohub,2013-01-10 05:34:00,
2013-01-09 21:39:00,34.5,17.2,31.16,SSW,211,0.0,3.0,49,0.01,,,0.23,meteohub,2013-01-10 05:39:00,
2013-01-09 21:44:00,34.5,17.2,31.16,SSW,211,0.0,3.0,49,0.01,,,0.23,meteohub,2013-01-10 05:44:00,
2013-01-09 21:49:00,34.5,17.2,31.16,SSW,211,2.0,3.0,49,0.01,,,0.23,meteohub,2013-01-10 05:49:00,
2013-01-09 21:55:00,34.5,17.2,31.16,SSW,211,0.0,2.0,49,0.01,,,0.23,meteohub,2013-01-10 05:55:00,
2013-01-09 22:00:00,34.5,17.2,31.17,SSW,211,0.0,3.0,49,0.01,,,0.23,meteohub,2013-01-10 06:00:00,
2013-01-09 22:05:00,34.3,17.2,31.16,SSW,211,1.0,4.0,49,0.01,,,0.24,meteohub,2013-01-10 06:05:00,
2013-01-09 22:10:00,34.2,17.1,31.17,SSW,211,0.0,4.0,49,0.01,,,0.24,meteohub,2013-01-10 06:10:00,
2013-01-09 22:15:00,34.0,16.9,31.17,SSW,211,0.0,2.0,49,0.01,,,0.24,meteohub,2013-01-10 06:15:00,
2013-01-09 22:20:00,34.0,16.9,31.17,SSW,211,0.0,2.0,49,0.01,,,0.24,meteohub,2013-01-10 06:20:00,
2013-01-09 22:26:00,34.0,16.9,31.17,SSW,211,0.0,1.0,49,0.01,,,0.24,meteohub,2013-01-10 06:26:00,
2013-01-09 22:31:00,34.0,16.9,31.17,SSW,211,0.0,1.0,49,0.01,,,0.24,meteohub,2013-01-10 06:31:00,
2013-01-09 22:36:00,34.0,16.9,31.17,SSW,211,0.0,1.0,49,0.01,,,0.24,meteohub,2013-01-10 06:36:00,
2013-01-09 22:41:00,34.2,17.1,31.17,SSW,211,0.0,1.0,49,0.01,,,0.24,meteohub,2013-01-10 06:41:00,
2013-01-09 22:46:00,34.2,17.1,31.17,SSW,211,0.0,0.0,49,0.01,,,0.24,meteohub,2013-01-10 06:46:00,
2013-01-09 22:51:00,34.2,17.1,31.17,SSW,211,0.0,0.0,49,0.01,,,0.24,meteohub,2013-01-10 06:51:00,
2013-01-09 22:56:00,34.3,17.2,31.17,SSW,211,0.0,0.0,49,0.01,,,0.24,meteohub,2013-01-10 06:56:00,
2013-01-09 23:01:00,34.2,17.1,31.17,SSW,211,0.0,0.0,49,0.01,,,0.24,meteohub,2013-01-10 07:01:00,
2013-01-09 23:06:00,34.2,17.1,31.17,SSW,211,0.0,0.0,49,0.00,,,0.24,meteohub,2013-01-10 07:06:00,
2013-01-09 23:11:00,34.2,17.1,31.17,SSW,211,0.0,0.0,49,0.00,,,0.24,meteohub,2013-01-10 07:11:00,
2013-01-09 23:17:00,34.2,17.1,31.17,SSW,211,0.0,2.0,49,0.00,,,0.24,meteohub,2013-01-10 07:17:00,
2013-01-09 23:22:00,34.2,17.1,31.17,SSW,211,2.0,2.0,49,0.00,,,0.24,meteohub,2013-01-10 07:22:00,
2013-01-09 23:27:00,34.3,17.2,31.16,SSW,211,0.0,2.0,49,0.00,,,0.24,meteohub,2013-01-10 07:27:00,
2013-01-09 23:32:00,34.3,17.2,31.17,SSW,211,0.0,2.0,49,0.00,,,0.24,meteohub,2013-01-10 07:32:00,
2013-01-09 23:37:00,34.3,17.2,31.17,SSW,211,0.0,3.0,49,0.00,,,0.24,meteohub,2013-01-10 07:37:00,
2013-01-09 23:42:00,34.3,17.2,31.17,SSW,211,1.0,3.0,49,0.00,,,0.24,meteohub,2013-01-10 07:42:00,
2013-01-09 23:47:00,34.3,17.2,31.16,SSW,213,0.0,4.0,49,0.00,,,0.24,meteohub,2013-01-10 07:47:00,
2013-01-09 23:52:00,34.3,17.2,31.17,South,188,0.0,6.0,49,0.00,,,0.24,meteohub,2013-01-10 07:52:00,
2013-01-09 23:57:00,34.3,17.2,31.17,SW,225,3.0,7.0,49,0.00,,,0.24,meteohub,2013-01-10 07:57:00,